User: anonymous   Login
Location: Unspecified
(0.0000°N, 0.0000°E)
Time: 23:13:21
(UTC+02:00)
Language:

ADEOS II - Orbit

View from above orbital plane
View from above orbital plane
View from above satellite
View from above satellite

Ground track
Ground track

The orbit data is extracted from the following two-line orbital elements,

1 27597U 02056A   18108.83533566 +.00000046 +00000-0 +35982-4 0  9991
2 27597 098.4153 071.1370 0001847 113.9502 246.1873 14.27343975799025
Epoch (UTC): 18 April 2018 20:02:53
Eccentricity: 0.0001847
inclination: 98.4153°
perigee height: 799 km
apogee height: 802 km
right ascension of ascending node: 71.1370°
argument of perigee: 113.9502°
revolutions per day: 14.27343975
mean anomaly at epoch: 246.1873°
orbit number at epoch: 79902

The dashed part of the orbit path shows where the satellite is in the earth's shadow,  

DLR